This demonstration page uses our WeatherBlox Daily Observations layout. Learn more.

Left ArrowRight Arrow

30.00354, -91.81873

Hourly Observations for July 31, 2022

Temp ( °F °C ) Dew Point ( °F °C ) Humidity (%) Winds ( mph kmh ) Pressure ( in mb ) Visibility ( mi km ) Precip ( " mm )
12:53 am 00:53 Clear 76 24.4 74 23.3 94 94 SE 6 9 30.12 1020 10 16 0.00 0.00
1:53 am 01:53 Clear 76 24.4 73 22.8 91 91 ESE 6 9 30.11 1020 10 16 0.00 0.00
2:53 am 02:53 Clear 75 23.9 73 22.8 94 94 SE 6 9 30.09 1019 10 16 0.00 0.00
3:53 am 03:53 Clear 76 24.4 73 22.8 91 91 E 3 6 30.09 1019 10 16 0.00 0.00
4:53 am 04:53 Clear 75 23.9 72 22.2 90 90 ENE 3 6 30.10 1019 9 14 0.00 0.00
5:53 am 05:53 Clear 74 23.3 72 22.2 94 94 SE 5 7 30.11 1020 8 13 0.00 0.00
6:53 am 06:53 Sunny with Mist and Fog 74 23.3 72 22.2 94 94 N 5 7 30.12 1020 6 10 0.00 0.00
7:53 am 07:53 Sunny 78 25.6 74 23.3 87 87 E 5 7 30.12 1020 10 16 0.00 0.00
8:53 am 08:53 Sunny 83 28.3 76 24.4 79 79 E 5 7 30.14 1021 10 16 0.00 0.00
9:53 am 09:53 Mostly Sunny 86 30 76 24.4 72 72 SSE 7 11 30.15 1021 10 16 0.00 0.00
10:53 am 10:53 Partly Cloudy with Nearby Thunderstorms 88 31.1 74 23.3 63 63 SE 7 11 30.16 1021 10 16 0.00 0.00
11:10 am 11:10 Mostly Sunny 90 32.2 75 23.9 62 62 SE 7 11 30.16 1021 10 16 0.00 0.00
11:53 am 11:53 Partly Cloudy with Nearby Thunderstorms 85 29.4 75 23.9 72 72 S 10 17 30.15 1021 10 16 0.00 0.00
12:17 pm 12:17 Mostly Cloudy 84 28.9 74 23.3 72 72 SSE 14 22 30.16 1021 10 16 0.00 0.00
12:36 pm 12:36 Cloudy with Light Rain 81 27.2 74 23.3 79 79 ESE 13 20 30.17 1022 10 16 0.00 0.00
12:53 pm 12:53 Cloudy with Light Rain 80 26.7 74 23.3 82 82 ESE 3 6 30.16 1021 6 10 0.00 0.00
1:53 pm 13:53 Sunny 85 29.4 77 25 77 77 E 7 11 30.14 1021 10 16 0.00 0.00
2:53 pm 14:53 Partly Cloudy 88 31.1 73 22.8 61 61 ENE 8 13 30.13 1020 10 16 0.00 0.00
3:53 pm 15:53 Mostly Sunny 89 31.7 74 23.3 61 61 ESE 9 15 30.11 1020 10 16 0.00 0.00
4:53 pm 16:53 Partly Cloudy 88 31.1 73 22.8 61 61 SE 10 17 30.09 1019 10 16 0.00 0.00
5:53 pm 17:53 Sunny 89 31.7 73 22.8 59 59 SSE 8 13 30.09 1019 10 16 0.00 0.00
6:53 pm 18:53 Mostly Sunny 86 30 72 22.2 63 63 SSE 9 15 30.11 1020 10 16 0.00 0.00
7:53 pm 19:53 Sunny 83 28.3 73 22.8 72 72 SSE 8 13 30.11 1020 10 16 0.00 0.00
8:53 pm 20:53 Clear 80 26.7 73 22.8 79 79 ESE 5 7 30.10 1019 10 16 0.00 0.00
9:53 pm 21:53 Clear 79 26.1 74 23.3 85 85 ESE 5 7 30.11 1020 10 16 0.00 0.00
10:53 pm 22:53 Clear 79 26.1 74 23.3 85 85 SE 6 9 30.12 1020 10 16 0.00 0.00
11:53 pm 23:53 Clear 77 25 74 23.3 90 90 SSE 6 9 30.11 1020 10 16 0.00 0.00

Powered by AerisWeather